EW9447 Weather Reports


time (UTC)temp
F
wind
direction
speed
knots
gust
knots
rain 1hr
in
rain 24hr
in
rain mn
in
humidity
%
barometer
mb
20260502194539 62 278 5.2 14.8 0.00 0.00 0.00 39 1015.7
20260502193039 61 299 5.2 13.0 0.00 0.00 0.00 40 1015.9
20260502191546 61 274 7.0 12.2 0.00 0.00 0.00 42 1016.0
20260502190040 60 300 7.8 14.8 0.00 0.00 0.00 39 1016.4
20260502184546 60 271 7.8 15.6 0.00 0.00 0.00 39 1016.5
20260502183059 59 284 5.2 12.2 0.00 0.00 0.00 40 1017.0
20260502181544 59 302 8.7 16.5 0.00 0.00 0.00 42 1017.3
20260502163052 56 302 6.1 13.0 0.00 0.00 0.00 45 1018.7
20260502161539 54 283 6.1 13.0 0.00 0.00 0.00 41 1018.8
20260502151542 52 279 8.7 13.9 0.00 0.00 0.00 43 1019.4
20260502123039 39 277 1.7 3.5 0.00 0.00 0.00 76 1020.0
20260502121546 36 287 0.0 1.7 0.00 0.00 0.00 78 1020.0
20260502114938 33 0 0.0 0.9 0.00 0.01 0.00 82 1019.9
20260502113039 32 0 0.0 0.9 0.00 0.01 0.00 82 1019.8
20260502111536 32 0 0.0 0.9 0.00 0.01 0.00 82 1019.7
20260502110035 32 0 0.9 1.7 0.00 0.01 0.00 81 1019.8
20260502104540 32 288 0.9 1.7 0.00 0.01 0.00 81 1019.8
20260502103043 32 0 0.0 0.9 0.00 0.01 0.00 81 1019.8
20260502101544 31 285 0.0 0.9 0.00 0.01 0.00 82 1019.8
20260502070039 33 0 0.0 0.0 0.00 0.01 0.00 74 1019.7
20260502064535 34 0 0.0 0.0 0.00 0.01 0.00 73 1019.9
20260502063034 35 0 0.0 0.0 0.00 0.01 0.00 72 1020.0
20260502061612 35 0 0.0 0.0 0.00 0.01 0.00 71 1020.0
20260502060039 36 0 0.0 0.0 0.00 0.01 0.00 69 1020.0
20260502054535 37 0 0.0 0.0 0.00 0.01 0.00 68 1020.1
20260502053036 37 0 0.0 0.0 0.00 0.01 0.00 68 1020.0
20260502051545 38 0 0.0 0.0 0.00 0.01 0.00 67 1019.9
20260502050041 39 0 0.0 0.0 0.00 0.01 0.00 65 1019.8
20260502044538 39 0 0.0 0.0 0.00 0.02 0.01 63 1019.7
20260502043043 39 0 0.0 0.0 0.00 0.02 0.01 63 1019.7
20260502041601 39 0 0.0 0.0 0.00 0.02 0.01 63 1019.7
20260502040044 39 0 0.0 0.0 0.00 0.02 0.01 63 1019.8
20260502034536 39 0 0.0 0.9 0.00 0.02 0.01 61 1019.8
20260502033049 40 0 0.0 0.0 0.00 0.02 0.01 60 1019.9
20260502031542 40 0 0.0 0.0 0.00 0.02 0.01 61 1019.8
20260502030040 40 0 0.0 0.0 0.00 0.02 0.01 61 1019.8
20260502024539 40 0 0.0 0.0 0.00 0.02 0.01 60 1019.7
20260502023037 40 0 0.0 0.0 0.00 0.02 0.01 61 1019.6
20260502021536 42 0 0.0 0.0 0.00 0.02 0.01 60 1019.5
20260502020037 43 0 0.0 0.0 0.00 0.02 0.01 56 1019.4
20260502014544 44 0 0.0 0.0 0.00 0.02 0.01 57 1019.3
20260502013039 46 0 0.0 0.0 0.00 0.02 0.01 53 1019.1
20260502011544 48 0 0.0 0.9 0.00 0.02 0.01 51 1019.1
20260502010042 49 0 0.0 1.7 0.00 0.02 0.01 49 1018.9
20260502004539 50 32 0.0 2.6 0.00 0.02 0.01 47 1018.7
20260502003038 49 0 0.0 1.7 0.00 0.02 0.01 49 1018.5
20260502001548 50 18 0.0 2.6 0.00 0.02 0.01 46 1018.4
20260502000045 51 0 0.9 4.3 0.00 0.02 0.01 45 1018.3
20260501234540 53 2 0.9 5.2 0.00 0.02 0.01 45 1018.2
20260501233159 53 35 1.7 4.3 0.00 0.02 0.01 42 1018.2
20260501231551 52 0 0.0 3.5 0.00 0.02 0.01 45 1018.2
20260501230035 51 37 0.9 4.3 0.00 0.02 0.01 46 1018.2
20260501224546 52 18 0.9 5.2 0.00 0.02 0.01 44 1018.2
20260501223107 53 332 0.9 4.3 0.00 0.02 0.01 43 1018.2
20260501221535 52 0 0.0 3.5 0.00 0.02 0.01 46 1018.2
20260501220036 52 324 0.9 5.2 0.00 0.02 0.01 48 1018.2
20260501214544 52 330 0.0 4.3 0.00 0.02 0.01 47 1018.2
20260501213043 52 29 1.7 5.2 0.00 0.02 0.01 44 1018.1
20260501211540 53 0 0.0 5.2 0.00 0.02 0.01 45 1018.1
20260501210036 53 18 1.7 6.1 0.00 0.02 0.01 47 1018.2
20260501204548 54 51 0.9 7.0 0.00 0.02 0.01 44 1018.3
20260501203035 53 11 2.6 8.7 0.00 0.02 0.01 45 1018.5
20260501200040 53 0 0.9 5.2 0.00 0.02 0.01 44 1018.5